Reflectivity
-20 -20 -20 -20 -20 -20 -20 -20 -20 -20 -15 -20 -17 3 3 1 -17 -17 3 12 28 19 16 19 5 9 7 12 12 22 22 9 10 -20 -2 -12 -18 19 13 -1 -14 -20 -19 1
-20 -20 -20 -20 -20 -20 -20 -20 -20 -20 -20 -20 -20 -3 -20 -2 -20 -19 -17 0 3 22 24 16 15 19 22 25 25 1 9 24 -20 -20 5 19 -1 10 10 -14 2 -20 -20 -20
-20 -20 -20 -20 -20 -20 -20 -20 -18 -20 -20 -20 -20 -20 -14 -3 -1 6 18 14 15 -5 19 30 27 9 16 20 9 24 28 3 3 -2 -9 -11 -9 -19 -17 -20 -20 -20 -20 -20
-20 -20 -20 -20 -20 -20 -20 -20 -20 -20 -20 -20 -16 -19 2 -11 -0 -13 -5 8 -12 -13 8 20 24 30 23 20 14 25 16 17 22 -13 3 -3 2 -5 5 15 3 -20 -1 0
-20 -20 -20 -20 -20 -20 -20 -20 -20 -20 -20 -20 -11 -1 6 -20 -1 -1 -0 -12 -9 -6 -3 16 22 27 32 28 27 21 19 15 20 11 12 11 -8 12 2 3 5 -20 -20 -14
-20 -20 -20 -20 -20 -20 -20 -20 -20 -20 -20 -20 -20 -17 14 3 -1 0 1 7 7 10 7 -2 9 16 21 22 28 27 31 18 25 26 24 22 15 17 25 29 1 -1 -5 -13
-20 -20 -20 -20 -20 -20 -20 -20 -20 -20 -20 -20 -20 -20 -10 -11 -20 -9 4 5 9 17 12 12 6 11 13 17 16 16 24 27 27 28 28 23 28 25 24 23 20 4 -3 19
-20 -20 -20 -20 -20 -20 -20 -20 -20 -20 -20 -20 -20 -20 -20 -20 -20 -20 -9 -9 -20 0 11 15 10 16 20 21 22 23 23 20 23 25 23 17 18 18 14 19 20 9 5 -2
-20 -20 -20 -20 -20 -20 -20 -20 -20 -20 -20 -20 -20 -20 -20 -20 -20 -20 -20 -20 -20 -18 -10 9 10 12 14 17 19 19 21 18 20 20 19 19 20 15 17 16 14 9 -4 -9
-20 -20 -20 -20 -20 -20 -20 -20 -20 -20 -20 -20 -20 -20 -20 -20 -20 -18 -20 -11 -6 -5 3 2 8 8 7 9 9 15 14 14 12 11 12 10 9 -7 -9 -8 2 -11 3 2
-20 -20 -20 -20 -20 -20 -20 -20 -20 -20 -20 -20 -20 -20 -20 -20 -20 -20 -19 -20 -8 4 6 3 1 6 4 2 7 11 10 8 6 4 3 4 1 -9 -11 -10 -16 -17 -3 -8
-20 -20 -20 -20 -20 -20 -20 -20 -20 -20 -20 -20 -20 -20 -20 -20 -20 -20 -17 -9 -3 -5 -4 6 -7 -10 -5 -5 -12 6 6 5 4 -16 -19 -20 -17 -2 7 1 3 6 -1 -11
-20 -20 -20 -20 -20 -20 -20 -20 -20 -20 -20 -20 -20 -20 -20 -20 -20 -20 -20 -20 -20 -20 -19 -20 -20 -11 -15 -18 -19 -20 -20 -20 -20 -12 -14 -20 -20 -20 -20 -5 12 1 1 15
-20 -20 -20 -20 -20 -20 -20 -20 -20 -20 -20 -20 -20 -20 -20 -20 -20 -20 -20 -20 -20 -20 -20 -20 -20 -20 -12 3 -2 -6 -12 -19 -4 -4 -2 -1 -14 -20 -20 -20 -19 -17 -18 -1
-20 -20 -20 -20 -20 -20 -20 -20 -20 -20 -20 -20 -20 -20 -20 -20 -20 -20 -20 -20 -20 -20 -20 -20 -20 -20 -20 -20 -18 -20 -11 -4 -0 -13 -12 -8 -4 -6 -16 -15 -4 -2 -4 -6
-20 -20 -20 -20 -20 -20 -20 -20 -20 -20 -20 -20 -20 -20 -20 -20 -20 -20 -20 -20 -20 -20 -20 -20 -20 -20 -20 -20 -20 -20 -20 -18 -14 -9 -19 -20 -20 -19 -6 -7 -20 -20 -20 -13
-20 -20 -20 -20 -20 -20 -20 -20 -20 -20 -20 -20 -20 -20 -20 -20 -20 -20 -20 -20 -20 -20 -20 -20 -20 -20 -20 -20 -20 -20 -20 -20 -10 -20 -20 -20 -20 -20 -20 -20 -20 -20 -20 -20
-20 -20 -20 -20 -20 -20 -20 -20 -20 -20 -20 -18 -20 -7 0 -20 -20 -20 -20 -20 -20 -20 -20 -20 -20 -20 -20 -20 -20 -20 -20 -20 -20 -20 -20 -20 -20 -20 -20 -20 -20 -20 -20 -20
-20 -20 -20 -20 -20 -20 -20 -20 -20 -20 -20 -20 -20 -20 -20 -20 -20 -20 -20 -20 -20 -20 -20 -20 -20 -20 -20 -20 -20 -20 -20 -20 -20 -20 -20 -20 -20 -20 -20 -20 -20 -20 -20 -20
-20 -20 -20 -20 -20 -20 -20 -20 -20 -20 -20 -20 -20 -20 -20 -20 -20 -20 -20 -20 -20 -20 -20 -20 -20 -20 -20 -20 -20 -17 -20 -20 -20 -20 -20 -20 -20 -20 -20 -20 -20 -20 -20 -20
-20 -20 -20 -20 -20 -20 -20 -20 -20 -20 -20 -20 -20 -20 -19 -20 -20 -20 -20 -20 -20 -20 -20 -20 -20 -20 -20 -20 -20 -20 -6 -20 -20 -20 -20 -20 -20 -20 -20 -20 -20 -20 -20 -20
-20 -20 -20 -20 -20 -20 -20 -20 -20 -20 -20 -20 -20 -20 -20 -20 -20 -20 -20 -20 -20 -20 -20 -20 -20 -20 -20 -11 -9 -20 -20 -20 -20 -20 -20 -20 -20 -20 -20 -20 -20 -20 -20 -20
-20 -20 -20 -20 -20 -20 -20 -20 -20 -20 -20 -20 -20 -20 -20 -20 -20 -20 -20 -20 -20 -20 -20 -20 -20 -2 -0 1 1 -20 -20 -20 -20 -19 -20 -20 -20 -20 -20 -20 -20 -20 -20 -20
-20 -20 -20 -20 -20 -20 -20 -20 -20 -20 -20 -20 -20 -20 -20 -20 -20 -20 -20 -20 -3 1 -18 -20 -18 4 5 10 9 -20 -20 -20 -20 -20 -20 -3 -0 -20 -15 -10 -20 -20 -20 -20
-20 -20 -20 -20 -20 -20 -20 -20 -20 -20 -20 -20 -20 -20 -20 -20 -20 -20 -20 -20 -20 -15 -20 -20 1 4 -20 -20 -20 -20 -20 -20 -20 -20 -20 -20 -20 -20 -20 -20 -20 -20 -20 -20
-20 -20 -20 -20 -20 -20 -20 -20 -20 -20 -20 -20 -20 -20 -20 -20 -20 -20 -20 -12 -16 -15 -11 -20 -20 -20 -13 -20 -20 -18 -20 -20 -20 -2 -20 -20 -20 -20 -20 -20 -20 -20 -5 -20
-20 -20 -20 -20 -20 -20 -20 -20 -20 -20 -20 -20 -20 -20 -20 -20 -20 -20 -20 -20 -20 -20 -20 -20 -20 -12 -3 -4 -20 -20 -20 -20 -13 -5 -18 -20 -19 -20 -20 -20 -20 -20 -20 -20
Wind_Speed
5 6 2 16 16 18 18 11 6 8 6 10 15 15 13 11 12 12 12 11 9 8 7 8 7 6 4 4 7 8 9 9 9 9 10 10 10 10 9 9 8 9 10 10
3 6 2 5 16 12 10 10 5 9 6 13 15 12 14 15 13 13 12 11 10 9 9 7 7 6 5 4 3 7 9 9 10 9 10 9 10 10 10 9 10 9 9 10
2 9 2 1 9 8 5 5 5 5 7 11 13 12 14 14 12 11 10 10 11 10 8 7 7 6 6 5 5 5 8 9 10 11 10 10 10 11 10 10 10 10 10 10
4 3 3 4 2 5 6 2 5 6 10 12 9 10 8 12 12 11 11 10 9 8 7 7 6 7 4 4 6 4 5 8 8 11 11 10 10 10 9 9 10 10 9 10
5 2 1 2 1 3 3 1 6 7 9 11 11 3 1 13 12 10 8 7 6 7 6 6 7 4 6 4 6 5 5 6 4 8 11 11 10 11 9 9 9 10 10 11
2 3 3 4 3 3 4 3 3 6 6 8 10 3 5 12 10 11 10 8 8 7 5 5 5 3 4 5 6 6 4 5 5 3 7 11 10 10 8 8 7 8 10 10
1 4 5 3 5 5 4 4 3 2 6 6 4 4 9 10 11 9 8 9 6 4 5 5 4 3 4 5 5 5 5 5 6 3 6 6 10 6 10 9 9 9 10 8
1 4 4 6 6 4 3 1 1 2 3 5 6 7 7 6 7 8 9 8 7 6 6 5 4 3 4 5 5 6 6 5 5 6 5 5 10 7 9 10 11 10 11 9
7 3 2 4 4 1 3 3 3 3 4 4 7 5 6 5 6 6 7 6 6 6 6 6 5 3 3 3 4 5 6 6 5 6 5 7 9 9 8 8 9 9 9 9
3 3 8 9 7 8 6 8 4 5 5 4 5 7 8 6 5 6 6 6 6 4 4 5 5 3 3 3 4 5 6 6 5 6 6 5 5 6 7 7 8 8 9 9
7 12 9 11 9 9 6 8 8 7 6 6 5 6 5 5 6 4 5 4 5 4 3 3 3 2 1 2 3 5 5 6 5 5 6 6 5 5 6 6 7 8 7 8
7 4 1 2 1 1 5 7 8 8 6 6 6 6 5 5 4 4 3 4 4 4 3 2 2 1 1 2 3 4 5 5 5 5 5 5 6 6 8 10 12 10 12 9
2 2 2 3 4 5 6 7 7 6 7 5 5 5 4 4 4 5 4 3 4 4 4 4 3 3 2 3 3 4 4 4 4 5 5 5 5 6 7 3 7 9 9 11
5 2 6 6 4 1 6 5 4 5 6 6 5 5 5 6 5 4 4 3 3 5 5 3 3 4 2 3 4 5 5 9 4 5 5 5 5 5 5 7 7 6 9 10
9 11 4 2 2 3 3 3 7 9 8 8 7 7 6 7 7 5 3 3 4 4 5 4 4 4 2 3 5 6 6 5 6 5 5 6 5 5 6 6 7 6 6 11
3 6 8 11 10 9 7 7 9 10 8 8 8 8 8 7 6 5 5 4 3 4 3 4 5 4 3 3 5 5 5 9 8 6 6 7 7 7 8 8 8 8 8 8
2 5 6 7 9 8 10 8 9 8 7 8 9 6 5 6 6 6 6 5 5 6 5 5 6 4 4 4 5 5 5 5 11 7 7 8 7 8 8 8 8 8 8 9
8 4 3 2 2 3 4 6 7 8 8 8 7 7 7 7 8 5 3 3 4 6 8 9 7 5 5 6 6 5 5 6 7 6 7 7 8 7 8 8 8 8 7 8
4 6 7 8 6 5 6 6 6 5 5 4 4 6 5 5 4 5 3 4 6 7 7 3 6 6 5 5 7 5 6 7 7 7 7 9 9 8 9 9 8 8 8 7
3 3 3 3 3 4 7 6 6 5 4 3 4 4 6 6 4 4 4 8 8 6 3 6 7 6 6 6 9 6 7 8 8 8 8 8 8 8 8 12 10 9 8 8
3 2 2 2 3 4 4 4 4 5 4 4 5 6 6 5 4 4 5 7 5 4 5 8 6 5 4 6 7 7 8 8 8 9 9 9 9 10 10 10 10 10 9 8
1 1 2 2 3 4 3 3 4 3 4 4 5 5 5 7 6 6 8 9 5 8 6 5 5 8 7 10 7 7 7 8 8 8 8 8 8 8 9 9 10 9 9 9
1 2 2 3 3 3 4 4 5 5 5 6 6 6 6 5 4 5 6 3 4 7 6 5 8 12 13 7 7 8 8 8 8 8 8 8 8 8 8 9 9 9 9 9
2 3 3 2 2 3 6 3 4 5 5 6 6 6 5 5 5 6 6 9 11 9 5 6 8 12 12 5 5 7 7 8 8 7 8 12 8 7 8 8 8 8 8 11
3 3 2 3 5 5 5 6 5 5 5 6 6 6 6 5 5 2 3 4 9 8 6 8 11 11 3 4 4 4 5 6 7 7 7 7 8 7 8 8 8 8 7 8
3 3 4 5 6 5 5 4 5 4 4 4 4 3 3 4 4 5 4 6 6 7 4 4 4 5 4 4 5 5 6 6 6 7 7 7 7 7 7 7 7 7 6 6
2 5 4 4 3 3 4 5 5 5 4 3 4 3 3 3 3 4 4 3 3 3 3 2 3 4 3 3 3 3 3 3 3 4 5 5 5 5 5 5 5 5 5 5
Wind_Direction
300 334 188 36 22 22 40 24 35 337 349 0 344 337 338 345 356 10 12 16 10 10 24 29 33 35 41 86 117 133 137 130 140 134 134 128 135 129 128 133 133 137 140 140
262 349 227 28 24 16 28 13 27 332 317 347 327 331 359 359 1 3 5 8 10 17 22 20 35 34 40 51 85 121 121 130 127 128 124 134 130 129 131 136 133 134 141 146
9 348 219 222 5 358 353 13 319 346 319 322 328 343 360 353 3 2 359 5 7 14 18 10 25 37 25 48 49 85 131 127 133 135 129 135 132 137 138 147 140 141 145 143
318 313 57 40 289 304 302 238 340 302 319 320 310 292 335 355 358 359 1 6 1 16 11 10 19 36 34 34 60 78 107 122 143 131 133 135 139 141 140 147 147 145 142 143
339 328 358 231 338 324 334 197 331 324 339 333 343 229 335 1 353 353 351 9 356 18 8 18 25 14 61 34 76 79 71 102 116 146 130 141 143 134 144 142 144 145 146 143
334 306 285 103 161 191 179 177 297 324 337 343 339 357 354 344 346 357 3 4 2 7 8 29 30 31 83 75 72 68 70 91 97 104 137 130 127 143 129 138 142 138 140 147
308 279 277 199 155 161 270 34 153 305 319 333 347 332 318 334 352 357 357 4 4 7 22 13 26 39 68 81 89 93 86 80 88 125 100 121 118 133 128 133 137 139 134 136
156 260 283 148 150 228 52 183 195 210 250 294 302 309 332 343 349 355 358 358 3 3 8 7 37 46 69 72 78 91 97 97 103 101 125 124 120 136 133 138 139 137 130 128
212 261 73 197 262 172 171 250 214 215 214 283 308 323 324 331 344 353 2 358 0 6 5 6 27 29 62 67 89 97 106 103 122 117 125 140 142 141 133 142 141 140 145 140
305 209 246 254 258 247 223 220 221 229 242 245 273 305 316 331 343 345 350 354 355 6 15 12 4 27 88 125 123 122 123 118 119 118 123 128 137 143 138 149 145 148 148 146
259 274 267 259 240 259 243 231 235 231 239 241 240 262 285 306 316 320 321 328 335 348 350 16 25 58 88 130 139 128 124 127 138 138 141 137 133 142 145 144 146 147 149 146
220 206 170 214 139 172 242 249 236 232 241 238 243 257 264 270 281 292 308 326 327 320 314 339 335 160 156 156 162 143 135 147 144 148 142 138 140 126 121 132 128 124 133 136
187 153 238 303 274 230 260 268 246 225 234 258 252 259 254 266 281 280 293 314 320 320 314 300 267 250 257 204 184 179 176 175 155 150 153 156 152 148 142 131 152 158 159 160
206 138 263 203 241 158 220 257 285 239 244 237 237 241 249 260 271 266 278 303 288 291 294 292 284 272 245 223 225 203 193 192 180 169 174 173 171 164 160 163 171 177 189 179
222 210 261 83 235 241 237 244 251 254 251 245 234 235 223 240 247 254 258 267 278 279 278 293 293 280 276 239 226 213 207 202 189 187 187 189 186 190 196 189 185 179 178 196
173 202 225 239 255 252 235 238 244 259 257 261 256 247 235 219 227 243 247 234 241 259 273 271 273 284 307 268 238 237 228 218 196 194 191 186 188 187 194 196 195 192 192 190
228 253 213 242 232 238 231 237 227 239 245 247 250 257 258 257 258 238 234 229 240 259 267 264 258 260 271 260 242 233 218 226 212 203 203 197 193 196 194 193 199 200 200 192
237 249 236 249 213 231 253 245 242 242 239 254 246 232 230 216 233 247 232 210 248 264 257 256 252 255 245 238 234 238 231 221 225 201 207 206 204 206 203 203 205 202 200 199
228 246 242 236 237 247 259 262 260 260 273 256 233 233 233 247 249 262 282 256 254 265 272 232 265 271 257 248 232 234 234 227 224 225 206 208 216 204 208 208 210 208 202 193
220 234 256 253 246 230 264 266 270 267 264 252 244 243 245 244 237 253 257 256 253 251 254 263 261 256 253 253 261 230 225 225 224 222 222 218 215 212 204 213 218 218 212 208
245 227 267 315 294 288 271 270 261 257 259 223 238 251 259 273 257 247 256 264 268 244 252 254 247 238 223 236 242 236 228 221 220 222 221 224 223 224 223 214 216 215 215 212
209 322 325 317 301 309 310 281 245 259 263 253 246 250 256 263 257 249 238 246 282 288 280 262 255 260 252 245 231 229 231 232 232 227 224 225 228 221 223 219 216 214 212 214
273 256 271 271 275 299 303 275 260 250 256 256 253 248 240 253 258 254 273 214 235 263 265 263 268 270 264 252 235 223 224 226 229 229 229 228 225 227 226 220 217 218 215 213
238 232 255 273 278 279 291 296 266 259 245 254 248 240 244 255 256 231 254 273 272 276 273 265 270 278 282 287 250 228 228 230 229 227 228 229 227 225 231 227 227 219 221 224
240 272 261 268 275 275 264 274 272 263 253 252 251 244 236 229 240 268 238 260 274 282 286 286 287 301 327 292 273 276 257 242 234 230 229 227 231 223 222 227 225 226 219 219
218 264 270 255 263 278 279 279 271 276 264 260 254 246 246 246 241 252 258 260 256 271 292 293 287 279 288 281 273 276 263 261 255 250 222 226 227 231 226 222 223 229 228 211
251 286 279 284 279 279 273 263 260 269 270 254 266 262 251 243 252 266 269 265 271 272 271 282 296 299 311 325 330 330 326 302 287 264 247 215 208 221 223 220 219 218 221 210